TimeCST,TemperatureF,Dew PointF,Humidity,Sea Level PressureIn,VisibilityMPH,Wind Direction,Wind SpeedMPH,Gust SpeedMPH,PrecipitationIn,Events,Conditions,WindDirDegrees,DateUTC
12:54 AM,18.0,5.0,57,30.09,10.0,WNW,27.6,38.0,N/A,,Clear,300,2013-01-20 06:54:00
1:54 AM,15.8,3.2,58,30.10,10.0,NW,20.7,32.2,N/A,,Clear,310,2013-01-20 07:54:00
2:54 AM,14.0,1.9,59,30.18,10.0,NW,17.3,29.9,N/A,,Clear,310,2013-01-20 08:54:00
3:54 AM,12.9,1.0,59,30.21,10.0,NW,19.6,27.6,N/A,,Clear,310,2013-01-20 09:54:00
4:54 AM,12.0,1.0,61,30.24,10.0,NW,17.3,25.3,N/A,,Clear,310,2013-01-20 10:54:00
5:54 AM,10.9,-0.0,61,30.27,10.0,NW,13.8,-,N/A,,Clear,310,2013-01-20 11:54:00
6:54 AM,10.4,-0.4,62,30.27,10.0,NNW,12.7,-,N/A,,Partly Cloudy,330,2013-01-20 12:54:00
7:54 AM,10.0,-0.0,64,30.33,10.0,WNW,11.5,-,N/A,,Mostly Cloudy,300,2013-01-20 13:54:00
8:54 AM,10.9,-0.0,61,30.35,10.0,NW,12.7,-,N/A,,Mostly Cloudy,310,2013-01-20 14:54:00
9:54 AM,12.9,1.0,59,30.35,10.0,NNW,11.5,-,N/A,,Scattered Clouds,330,2013-01-20 15:54:00
10:54 AM,15.1,1.0,54,30.36,10.0,NNW,10.4,-,N/A,,Mostly Cloudy,330,2013-01-20 16:54:00
11:54 AM,16.0,1.9,54,30.35,10.0,NW,9.2,19.6,N/A,,Mostly Cloudy,310,2013-01-20 17:54:00
12:54 PM,17.1,1.9,52,30.32,10.0,NW,11.5,16.1,N/A,,Mostly Cloudy,320,2013-01-20 18:54:00
1:54 PM,18.0,1.9,50,30.32,10.0,WNW,11.5,-,N/A,,Mostly Cloudy,300,2013-01-20 19:54:00
2:54 PM,19.4,1.4,46,30.27,10.0,WNW,13.8,-,N/A,,Mostly Cloudy,290,2013-01-20 20:54:00
3:54 PM,17.1,-0.0,47,30.31,10.0,NW,12.7,-,N/A,,Mostly Cloudy,310,2013-01-20 21:54:00
4:54 PM,15.1,-0.0,51,30.32,10.0,WNW,9.2,-,N/A,,Mostly Cloudy,300,2013-01-20 22:54:00
5:54 PM,15.1,1.0,54,30.32,10.0,WNW,9.2,-,N/A,,Mostly Cloudy,300,2013-01-20 23:54:00
6:54 PM,12.9,1.0,59,30.32,10.0,WNW,5.8,-,N/A,,Partly Cloudy,290,2013-01-21 00:54:00
7:54 PM,12.9,1.0,59,30.31,10.0,WNW,10.4,-,N/A,,Mostly Cloudy,300,2013-01-21 01:54:00
8:54 PM,12.0,1.0,61,30.30,10.0,West,8.1,-,N/A,,Partly Cloudy,280,2013-01-21 02:54:00
9:54 PM,12.9,1.9,62,30.28,10.0,WNW,11.5,-,N/A,,Overcast,290,2013-01-21 03:54:00
10:54 PM,12.9,3.0,65,30.27,10.0,West,13.8,-,N/A,,Overcast,280,2013-01-21 04:54:00
11:54 PM,12.0,1.9,64,30.26,10.0,West,11.5,-,N/A,,Mostly Cloudy,280,2013-01-21 05:54:00